Theta_e
293 294 296 300 300 299 297 298 299 299 297 295 294 294 294 294 293 294 293 293 294 294 294 294 294 293 293 292 292 292 291 291 291 293 294 295 294 293 293 292 292 292 291 291 291 291 291 291 291 292 293 293 292 292 291 291 291 290 290 290 290 290 289 288 289 289 288 288 289
292 293 295 299 299 297 296 297 298 297 296 294 294 293 293 293 294 293 293 293 294 294 294 293 294 292 291 292 292 292 291 292 291 292 293 293 293 292 292 292 291 291 291 291 291 291 292 291 291 292 293 293 292 291 291 291 290 290 289 288 289 289 289 289 289 289 289 288 289
291 291 292 292 292 293 293 294 293 293 292 293 293 293 293 293 293 293 293 293 292 292 292 293 293 292 292 291 291 291 291 291 291 291 291 291 291 291 291 291 291 291 292 293 292 292 292 291 292 293 294 294 292 291 291 290 290 289 289 288 289 290 290 291 290 289 289 290 289
291 291 291 291 291 291 292 293 292 291 291 292 292 292 293 293 293 293 292 292 291 291 292 292 292 292 292 292 291 291 291 293 292 292 291 291 291 291 291 291 291 291 291 291 291 291 291 290 291 292 292 290 289 289 290 290 289 289 289 289 289 289 290 291 290 290 291 290 289
291 291 291 291 291 291 291 291 291 291 291 292 291 292 292 292 292 292 292 292 292 292 292 291 291 291 292 292 291 290 291 291 294 294 292 292 292 291 291 291 291 291 291 291 290 290 290 289 289 290 289 288 289 289 289 288 288 288 288 290 289 290 290 290 290 290 291 291 290
291 290 290 290 290 290 290 290 290 290 290 290 290 290 291 291 291 291 291 292 291 291 290 291 292 293 293 292 291 290 290 290 291 291 291 291 291 290 290 290 290 290 290 290 289 288 288 287 288 289 289 289 288 288 288 287 287 287 288 289 289 290 289 289 290 290 290 290 289
290 290 290 290 290 290 290 290 290 289 289 289 290 290 291 290 290 290 290 290 290 290 291 294 294 293 293 291 290 290 290 290 290 289 290 290 290 290 290 290 289 289 288 288 287 286 286 285 287 289 290 292 291 290 288 287 287 288 288 289 290 290 289 288 289 290 289 289 288
290 290 290 290 290 290 290 290 290 290 290 291 291 291 291 290 290 290 289 289 289 290 291 293 291 291 290 290 289 289 289 289 289 289 289 289 289 289 289 288 288 287 287 286 286 285 285 285 287 288 289 290 291 290 289 288 287 287 288 288 289 289 289 290 289 289 290 289 289
289 290 290 290 290 290 290 290 290 290 291 291 291 291 291 291 290 290 290 290 291 292 291 291 290 289 289 289 289 289 289 289 289 289 289 289 289 289 288 288 288 287 286 286 286 285 285 286 287 288 289 290 290 290 289 288 287 287 287 288 289 289 289 290 289 290 290 290 290
289 289 289 289 289 290 290 290 290 290 290 291 291 291 291 294 293 292 291 292 293 292 290 290 289 289 289 289 289 289 289 289 289 289 289 289 290 289 289 288 288 287 287 286 286 286 286 286 288 288 288 288 289 288 288 287 287 287 287 289 289 289 289 289 290 291 292 293 292
289 289 289 289 289 290 290 289 290 290 291 290 290 290 291 293 293 292 292 292 291 290 289 289 289 289 289 289 289 289 289 289 289 289 289 289 289 289 288 287 287 286 286 286 287 286 287 287 288 288 288 288 288 288 287 287 287 287 287 288 289 289 289 290 291 292 292 293 293
289 289 289 289 289 289 289 289 290 290 290 290 290 290 290 290 290 291 291 290 290 289 289 289 289 289 289 289 289 290 290 290 289 289 289 288 288 287 287 286 286 286 286 286 287 287 287 287 288 288 287 287 288 288 288 287 287 287 287 288 289 289 290 290 291 292 293 293 293
288 289 289 289 289 289 289 289 290 290 290 290 290 290 291 290 290 290 290 289 289 289 289 289 289 289 289 289 289 289 289 289 288 288 288 288 287 287 287 287 287 287 287 287 287 287 288 288 287 287 287 287 288 288 288 287 287 287 288 288 289 289 290 291 292 293 293 293 293
288 288 289 289 289 289 289 290 290 290 290 290 290 290 290 289 290 290 289 288 289 289 288 288 290 290 290 290 289 289 288 288 288 287 287 287 287 287 287 287 287 287 287 288 287 287 287 287 287 287 287 287 288 288 288 287 288 288 288 289 290 291 292 293 293 293 293 293 293
288 288 289 289 289 289 290 290 291 291 291 290 290 290 289 288 289 289 289 288 288 288 288 288 289 290 290 290 289 288 288 287 287 287 287 287 287 287 287 288 287 287 287 288 287 287 287 287 287 287 287 287 287 288 288 288 289 289 290 290 291 292 293 293 293 293 293 293 293
289 289 289 289 289 289 290 290 291 291 291 291 290 289 288 287 288 289 289 289 288 288 288 288 288 288 288 289 289 288 288 287 287 287 287 287 287 287 287 287 287 287 287 287 287 287 287 287 287 287 287 287 287 288 288 289 289 290 290 291 292 293 293 293 294 293 293 293 293
289 289 289 289 289 289 290 290 291 291 290 290 289 288 287 287 287 288 290 290 289 288 288 288 288 288 288 289 289 289 288 288 287 287 287 287 287 287 287 287 287 287 287 287 287 287 287 287 287 287 287 287 288 288 289 290 290 291 291 292 292 292 292 293 293 293 292 292 292
290 289 289 289 289 289 290 290 290 290 290 289 288 287 287 287 287 288 289 290 289 288 288 288 287 287 287 287 287 288 288 288 287 287 287 287 287 286 286 286 287 287 286 286 286 287 287 287 287 287 288 288 289 289 290 290 291 292 292 292 292 292 291 291 291 291 291 291 291
289 289 289 289 289 289 290 290 290 289 289 288 287 287 287 287 287 287 287 288 289 289 288 288 287 287 287 287 287 288 288 288 287 287 286 286 286 286 286 286 286 286 286 286 286 287 287 287 287 288 288 289 289 290 290 291 291 291 291 291 291 291 291 291 291 291 291 291 291
289 289 289 289 289 289 289 290 289 288 288 287 287 287 287 287 287 287 288 288 289 288 288 287 287 287 287 286 286 286 287 287 287 286 286 286 286 286 286 286 286 287 286 286 287 287 287 287 288 288 288 289 289 290 290 290 291 291 291 291 291 291 291 291 291 291 291 291 291
290 290 290 290 289 289 289 289 288 287 287 286 286 287 287 287 287 287 288 288 288 288 287 287 287 286 286 286 286 286 286 287 287 286 286 286 286 287 287 287 287 287 287 287 287 287 287 288 288 288 289 289 290 290 290 290 290 291 291 291 291 291 291 291 291 291 291 291 292
290 290 290 289 289 289 289 288 287 286 286 286 287 287 287 287 287 288 287 288 288 287 287 287 287 286 286 286 286 286 286 287 286 287 287 287 287 288 288 288 287 287 287 287 287 287 288 288 289 289 290 290 290 290 291 291 291 291 292 292 292 292 292 292 292 292 292 293 293
289 289 289 289 288 289 289 288 287 286 287 287 287 287 287 287 288 287 287 287 288 288 287 287 287 287 286 286 286 286 286 287 287 287 287 287 287 287 287 287 286 286 287 288 288 288 289 289 290 291 292 292 292 292 292 292 293 293 293 293 293 293 293 293 294 294 294 294 295
289 288 288 288 287 287 287 286 286 287 287 288 288 288 288 288 288 287 287 287 287 287 286 287 287 287 286 286 286 286 286 287 287 287 287 287 287 287 286 287 287 287 288 289 291 292 292 293 293 294 294 295 294 294 294 294 295 295 295 295 294 294 294 295 295 295 296 296 296
288 287 287 287 287 286 287 287 287 288 288 288 288 288 288 288 288 287 287 287 287 287 286 286 286 287 288 288 288 288 287 287 287 287 287 287 287 286 286 287 288 288 290 291 295 297 298 298 297 296 296 296 296 296 295 295 295 295 295 295 295 295 295 296 296 296 297 297 297
287 287 287 286 286 287 287 287 288 288 288 288 288 288 288 288 288 287 287 287 287 287 287 287 287 289 290 290 289 288 287 287 287 286 286 286 286 286 286 288 289 289 291 294 297 299 300 300 300 299 298 297 297 297 297 297 297 296 296 296 296 296 296 296 297 297 297 298 298
286 287 287 287 287 287 288 288 288 288 288 288 288 288 288 287 288 287 287 287 287 287 287 287 287 289 291 289 288 287 287 287 286 286 285 286 286 286 287 288 289 290 291 295 298 299 300 301 301 301 300 299 298 298 298 297 298 298 298 298 297 297 297 297 297 297 298 299 299
286 287 287 287 287 288 287 288 288 288 288 288 288 288 287 287 287 287 287 287 286 287 287 287 288 289 289 288 287 286 286 286 286 286 286 286 286 287 287 288 289 290 293 297 299 300 301 301 302 302 302 300 299 298 298 298 298 298 298 298 298 298 298 298 298 298 298 298 298
287 287 287 287 287 288 288 288 288 288 288 288 288 288 287 287 287 287 287 287 286 287 287 288 289 289 288 287 286 286 285 285 286 286 287 287 287 287 288 289 289 291 294 298 299 300 301 301 302 303 303 302 300 299 298 299 299 298 298 298 298 298 298 297 297 298 298 298 298
287 287 287 287 287 288 288 288 288 288 288 288 288 287 287 287 287 287 286 286 286 286 287 288 288 287 287 286 285 285 285 286 287 287 287 287 287 288 289 290 290 291 294 298 299 300 301 301 302 303 303 303 301 300 299 298 298 298 298 298 298 298 298 298 298 298 298 299 299
287 287 287 287 288 288 288 288 288 288 288 288 287 287 287 287 287 286 286 286 286 288 289 288 286 286 285 285 285 285 285 286 287 287 287 287 288 289 289 289 289 291 294 298 299 300 301 302 302 303 303 303 302 300 299 298 298 298 297 298 298 298 298 298 298 298 299 299 298
287 287 287 288 288 288 288 288 288 288 287 287 287 287 286 286 286 286 286 286 287 287 287 286 285 285 285 285 285 285 286 287 287 288 288 288 288 288 288 289 289 291 294 298 299 300 301 302 302 303 304 304 303 301 299 299 298 298 298 298 298 298 298 298 298 298 298 298 298
287 287 287 287 288 288 288 288 288 287 287 286 286 286 286 286 286 286 286 286 286 286 286 286 285 285 285 285 285 286 286 287 288 289 289 289 288 288 288 289 289 292 295 298 300 301 301 302 303 303 304 304 302 301 299 299 298 298 298 298 298 298 298 298 298 298 298 298 297
287 287 287 287 287 287 288 288 287 287 286 286 286 286 286 286 286 285 286 287 287 287 286 286 286 285 285 285 285 286 287 289 289 288 288 288 288 288 288 289 290 293 296 299 300 301 302 302 303 303 303 303 301 300 299 298 298 298 298 297 297 298 298 298 298 298 297 297 297
287 287 287 287 287 288 288 287 287 286 286 286 286 286 286 285 285 285 286 288 289 288 286 286 285 285 285 285 286 286 287 288 288 287 288 288 288 288 289 289 290 293 297 300 300 301 302 302 302 302 302 302 300 299 298 298 297 297 297 297 297 297 298 298 297 297 297 296 296
286 286 287 287 287 287 287 287 287 286 286 286 286 286 286 285 285 285 287 289 289 287 286 285 285 285 285 286 286 287 288 287 287 287 288 289 289 289 289 289 290 293 297 300 301 301 301 302 302 302 301 300 299 298 298 298 297 297 297 297 297 297 297 297 297 297 296 296 296
286 286 287 287 287 287 287 287 286 286 286 286 286 285 285 285 285 285 287 289 287 286 285 285 285 285 285 286 286 287 287 287 287 288 288 290 289 289 289 290 291 293 296 300 300 301 301 301 301 301 301 299 298 298 297 297 297 297 297 297 297 297 297 297 297 296 296 296 296
287 287 287 287 287 287 287 286 286 286 286 286 285 285 285 285 285 286 287 290 286 285 285 284 285 285 286 286 287 287 287 288 288 288 289 289 289 290 290 291 292 294 296 299 299 300 300 301 301 302 301 299 298 297 297 297 296 296 296 296 296 296 297 297 296 296 297 297 298
287 287 287 287 287 287 286 286 286 285 285 285 285 285 285 285 285 287 288 289 286 285 284 284 285 285 286 288 288 288 288 288 288 289 289 289 290 292 293 293 293 294 295 297 298 299 300 301 301 302 301 299 298 297 297 296 296 296 295 295 295 295 295 296 296 296 296 296 299
287 287 287 287 287 286 286 285 285 285 285 285 285 285 285 286 287 288 288 287 285 284 284 284 285 286 287 289 288 288 287 287 288 288 289 290 292 294 295 294 292 292 294 296 297 299 300 300 301 302 302 299 298 297 296 296 295 294 294 294 294 294 295 295 296 295 295 295 296
287 287 287 287 286 286 286 285 285 285 285 285 285 286 287 288 288 287 286 285 284 284 285 285 285 286 287 288 288 287 287 287 288 289 290 291 292 294 295 293 291 291 292 294 297 299 300 301 301 302 301 299 298 297 296 295 294 293 293 293 293 294 294 294 295 294 294 294 294
Wind_Speed
4 4 3 2 2 2 2 2 1 1 1 1 1 2 2 3 3 3 3 2 3 3 3 2 2 2 2 2 2 3 3 3 3 3 4 4 4 5 5 5 5 5 5 6 5 5 5 5 4 4 4 4 4 4 4 4 5 5 5 5 5 5 5 6 7 7 7 8 6
5 4 4 3 3 2 2 2 2 2 2 1 1 1 1 2 2 2 2 3 3 2 2 2 2 2 2 3 3 3 3 3 3 4 4 5 5 5 5 5 5 6 6 6 6 5 5 5 4 4 4 4 4 4 5 5 4 4 5 6 5 4 5 6 6 7 7 7 6
4 4 4 3 3 3 2 2 2 2 2 2 1 1 1 1 2 2 2 2 2 1 1 1 2 2 3 3 3 3 3 3 3 4 4 5 5 5 5 5 6 6 6 6 6 6 5 5 5 4 4 4 4 4 5 4 4 4 5 5 5 4 4 5 5 5 5 5 5
3 3 3 3 3 2 2 2 2 3 2 2 2 1 2 2 2 2 2 1 1 2 2 3 3 3 3 3 3 3 3 3 3 4 4 5 5 6 6 5 5 6 6 6 6 6 6 5 4 4 4 4 5 5 5 4 4 4 4 4 4 4 5 5 5 5 5 5 5
3 2 2 2 2 2 2 1 2 2 2 2 2 2 2 2 2 2 2 2 3 3 3 3 3 3 3 2 3 3 3 3 3 4 4 5 5 6 5 5 6 6 6 6 6 6 6 5 4 3 4 4 4 4 5 6 5 4 4 4 4 4 5 5 5 5 5 5 5
4 3 2 2 2 2 2 1 2 2 2 1 2 2 3 2 2 2 3 3 4 4 3 3 3 3 3 2 3 3 3 3 3 3 4 5 5 5 5 6 6 6 6 6 6 5 5 4 3 3 3 4 4 5 5 6 5 5 5 5 5 5 5 5 5 5 5 6 6
3 3 3 2 2 2 2 2 1 1 1 1 2 4 5 4 4 4 4 4 3 3 3 3 3 3 3 3 3 3 3 3 3 3 4 4 5 5 5 6 6 6 6 5 5 5 4 3 3 4 4 5 5 5 6 6 5 6 6 6 6 5 5 5 5 5 5 7 7
3 3 3 3 2 2 2 2 2 2 2 3 4 5 6 6 6 6 5 4 4 3 3 2 3 3 3 3 3 3 3 3 3 4 4 4 5 5 6 6 5 6 5 5 5 4 4 3 3 4 4 4 5 5 6 7 7 7 7 8 6 5 5 6 5 5 6 8 9
4 4 4 3 3 3 3 3 2 3 3 4 6 6 7 7 7 6 6 5 4 3 3 2 2 2 2 2 2 3 3 3 4 4 4 4 5 5 5 5 5 5 5 4 4 5 5 4 4 4 5 5 5 6 7 7 8 8 8 8 7 6 6 6 5 6 7 8 9
5 5 4 4 4 3 3 3 3 3 3 5 6 7 7 8 7 6 5 4 3 3 2 2 1 1 1 2 3 3 3 4 4 4 5 5 5 5 5 5 5 6 5 5 5 5 5 4 5 6 6 5 7 7 8 8 8 8 8 7 7 7 7 6 7 8 9 9 10
5 5 4 4 4 4 3 3 3 3 3 5 6 7 7 8 7 6 4 3 3 3 3 2 1 1 2 2 3 4 4 4 4 4 5 5 5 5 5 5 6 6 6 6 5 5 5 5 6 7 8 7 7 8 8 8 8 9 9 7 8 8 9 8 8 8 9 9 10
5 5 5 4 4 4 3 3 3 4 4 5 6 7 7 7 6 5 4 2 3 3 3 2 1 2 2 3 3 4 4 4 4 4 4 5 5 5 6 6 6 7 7 7 5 5 5 6 7 8 9 9 8 7 8 8 9 9 9 9 9 9 10 10 10 9 8 9 9
5 5 5 5 4 4 3 3 4 4 5 6 7 7 7 7 6 4 3 3 3 3 3 2 2 2 3 3 3 4 4 4 4 4 4 5 5 6 6 6 7 7 7 7 6 5 6 7 8 9 9 10 9 8 8 9 9 9 10 10 10 10 11 12 11 10 9 9 9
4 4 5 5 4 4 4 4 4 5 6 7 7 7 6 6 5 3 2 2 3 3 3 2 2 2 3 3 3 3 3 3 4 4 5 5 6 6 7 7 7 7 7 7 6 6 7 7 8 9 9 10 10 10 9 9 9 9 10 11 11 12 12 12 12 11 10 10 10
5 5 5 4 4 4 4 5 5 5 6 7 7 6 6 5 4 3 2 2 3 3 3 3 3 3 3 3 3 3 3 3 4 5 5 6 7 7 7 7 8 7 7 7 6 6 7 8 8 9 9 10 10 10 10 9 9 10 10 10 11 12 12 11 11 11 10 11 11
5 5 5 4 4 4 5 5 5 5 6 7 6 6 5 4 3 3 2 3 3 2 2 3 3 3 3 3 3 3 3 4 4 5 6 7 7 7 7 8 8 8 8 8 7 7 7 8 8 8 9 9 9 9 9 9 9 9 10 10 11 11 11 11 11 10 10 10 10
5 5 5 4 5 5 6 6 5 5 6 6 6 6 5 4 3 3 3 3 3 3 3 3 3 3 4 4 4 3 4 4 5 5 6 7 7 8 8 8 8 8 8 8 8 8 8 8 8 8 8 8 9 9 9 9 9 9 9 10 10 10 10 10 10 10 10 10 11
6 6 6 5 6 6 7 7 6 6 6 6 6 5 4 4 3 3 3 3 3 3 4 4 4 4 4 5 4 4 4 5 5 6 6 7 7 8 8 8 8 8 8 8 8 8 8 8 8 8 7 8 8 8 8 8 9 9 10 10 10 10 10 11 11 11 10 11 12
7 7 6 6 6 7 7 7 6 6 5 5 5 4 4 4 4 4 4 3 3 3 4 5 5 4 4 5 5 5 5 5 6 7 7 7 7 7 8 8 8 8 8 7 8 8 8 8 8 8 8 8 8 8 9 9 10 10 11 11 11 11 11 11 11 11 12 12 13
8 7 7 6 6 6 6 6 5 5 4 4 4 4 4 4 4 4 4 4 4 4 4 4 5 5 5 5 6 6 5 4 6 7 7 7 7 8 8 8 8 8 8 7 8 8 8 8 8 8 8 8 9 10 10 10 11 11 11 11 11 12 12 12 12 13 13 13 13
8 7 6 6 5 5 5 4 4 4 4 4 4 4 4 4 4 4 4 5 4 4 4 4 5 5 6 6 7 7 6 5 6 7 7 7 8 8 8 8 8 8 7 7 7 8 8 8 8 9 9 9 10 10 10 10 11 11 12 11 11 12 12 13 13 13 14 14 14
7 6 5 5 5 4 4 4 3 3 3 4 4 4 4 4 5 5 5 4 4 4 4 4 5 5 6 6 7 7 7 6 6 7 7 7 8 8 8 7 7 8 8 8 8 8 8 9 9 9 10 10 10 10 11 11 11 12 12 12 12 13 13 13 14 14 14 15 15
6 5 5 4 4 4 4 4 3 4 4 4 4 5 5 5 5 5 5 4 4 4 4 4 5 6 6 6 7 7 7 7 7 7 7 7 7 7 7 7 7 7 8 8 8 8 9 9 10 10 10 10 10 10 11 11 12 12 12 13 13 13 14 14 14 14 15 15 15
6 6 4 4 4 4 4 4 4 5 5 5 5 5 6 6 6 5 5 5 5 5 5 5 5 6 6 7 7 7 7 7 8 8 8 8 7 7 7 7 7 7 7 7 9 10 11 11 10 10 10 10 10 10 11 11 12 12 13 14 14 14 14 14 15 15 15 16 15
6 5 5 4 4 4 4 5 5 5 6 6 6 6 6 6 6 6 6 6 6 6 6 6 6 6 6 7 7 7 7 7 8 8 8 8 8 7 7 6 7 7 7 9 14 18 19 17 14 12 10 9 9 10 10 11 12 12 13 13 14 15 15 16 16 16 16 16 15
5 5 5 4 4 5 5 5 6 6 6 6 6 6 6 6 6 6 6 7 7 7 6 6 6 7 7 7 7 7 7 6 7 7 7 8 8 8 7 7 7 7 8 12 18 21 22 22 21 18 14 11 10 10 10 11 11 12 13 14 14 15 15 14 15 15 15 14 13
5 5 5 5 5 5 6 6 6 6 7 7 7 7 7 7 6 6 7 7 7 7 6 6 6 7 7 6 7 7 7 6 6 6 7 7 8 9 9 9 8 8 10 15 20 22 22 22 23 21 18 13 11 10 10 10 12 13 13 14 14 13 13 13 14 14 14 12 11
5 5 5 5 6 6 6 7 7 7 8 8 8 7 7 7 7 7 7 7 7 6 6 5 6 5 5 5 6 6 6 6 6 6 7 8 9 9 10 9 9 10 13 18 21 22 23 23 23 23 22 18 12 10 10 10 11 12 12 12 11 11 11 11 10 10 10 10 9
5 5 6 6 7 7 7 8 8 8 8 8 8 8 8 8 8 8 8 7 7 6 6 6 5 5 5 5 6 6 6 6 6 6 7 9 10 10 10 10 10 12 16 21 23 23 23 23 23 24 24 22 14 10 8 8 9 10 9 8 8 8 8 9 9 9 9 9 9
6 6 6 7 7 8 8 8 8 8 8 7 8 8 8 8 8 8 8 8 7 6 6 6 5 5 6 6 6 5 6 6 7 7 8 9 10 11 11 11 11 12 16 21 23 23 24 24 24 24 25 25 18 12 8 8 8 8 7 7 7 8 9 9 10 10 10 9 8
6 6 7 7 8 8 8 8 8 8 8 8 8 8 8 8 8 8 7 7 7 7 7 6 6 6 7 6 5 5 6 7 8 8 9 10 11 11 11 11 11 13 16 21 23 24 24 24 25 25 26 26 20 13 9 8 8 8 8 8 8 9 9 10 10 10 10 9 9
7 7 7 8 8 8 8 8 8 8 8 8 8 8 8 8 8 7 7 6 7 7 7 6 6 7 7 6 5 6 7 8 9 9 10 10 11 11 11 12 12 13 16 21 23 24 24 25 25 26 26 26 20 14 10 9 9 9 9 9 10 10 10 10 10 10 10 9 8
7 7 8 8 8 8 8 8 8 8 8 8 8 8 8 9 8 8 7 7 6 6 6 6 6 6 6 6 6 7 8 9 10 11 11 11 11 11 12 12 11 13 17 22 23 24 25 25 25 25 26 25 19 13 10 9 8 8 8 9 10 10 11 12 11 10 9 8 8
7 8 8 8 8 8 8 8 8 8 8 8 8 8 8 8 8 8 8 7 6 6 5 6 6 5 5 5 6 8 9 10 10 10 10 11 11 11 12 11 10 13 18 23 24 25 25 24 24 25 25 24 16 11 9 9 9 9 10 11 11 11 12 12 11 10 8 8 8
8 8 8 8 8 9 9 9 8 8 8 8 9 9 8 7 8 8 8 8 7 6 5 5 5 5 5 6 6 8 9 11 11 11 10 10 11 12 12 12 12 16 20 24 24 24 24 24 24 24 24 20 13 9 8 9 10 10 11 12 12 13 12 11 10 9 8 8 8
7 8 8 9 9 9 9 9 9 8 9 9 9 9 9 8 7 7 7 8 7 7 6 6 6 6 6 7 7 9 10 11 11 11 11 11 11 12 13 13 14 17 20 23 24 24 24 24 24 25 22 17 10 8 8 8 8 9 10 12 12 13 12 12 10 9 8 7 8
7 7 8 8 9 9 9 8 9 9 9 9 9 8 8 8 7 7 7 7 6 7 7 7 7 7 7 8 9 9 9 10 10 11 11 12 12 13 13 14 14 16 18 21 23 24 24 25 25 24 21 14 9 7 7 7 6 7 9 10 11 11 10 10 9 9 8 8 9
7 7 8 8 8 9 8 8 8 9 9 9 8 7 7 7 6 6 7 7 6 6 7 7 7 8 9 10 10 11 11 11 11 11 12 12 13 13 14 14 14 14 16 20 22 24 24 25 25 24 20 12 9 7 6 5 6 6 7 8 8 9 9 8 7 7 8 9 12
7 7 7 7 8 8 8 8 8 9 8 8 8 7 7 6 6 6 7 7 6 6 7 7 8 9 10 11 11 11 11 11 11 12 12 12 13 14 15 15 13 14 16 20 22 24 24 24 25 24 21 13 9 7 6 5 6 6 7 7 7 7 7 7 6 6 7 10 14
7 7 7 7 7 8 8 8 8 8 7 7 8 7 7 7 7 7 7 7 6 6 7 7 9 10 11 12 12 12 12 12 12 12 12 13 14 16 17 15 13 13 15 19 22 23 24 24 24 24 20 13 8 6 5 5 6 7 7 6 6 6 6 6 6 6 7 9 12
6 7 7 7 7 7 8 8 8 8 7 6 7 7 7 7 7 7 6 6 6 6 7 8 9 10 11 12 11 11 12 13 13 13 13 14 14 15 15 14 13 13 14 16 20 22 23 23 23 23 21 14 9 6 5 5 6 7 7 7 6 6 6 6 6 6 7 8 8
Wind_Direction
357 352 345 338 337 331 321 309 305 293 256 217 217 210 203 197 209 217 219 208 210 215 219 217 214 217 219 213 208 214 224 236 242 247 251 252 254 256 257 258 257 257 258 261 263 266 267 267 268 270 273 271 270 269 267 265 264 264 263 262 264 264 262 260 261 260 257 253 252
349 346 345 349 356 358 351 338 335 335 335 321 291 261 236 218 221 225 227 222 222 223 223 227 220 220 221 221 213 214 222 236 245 254 260 262 260 260 260 260 259 258 258 261 264 267 270 271 271 275 278 277 275 273 271 267 265 266 266 264 263 264 263 262 259 256 254 252 250
337 339 344 351 357 358 354 341 332 327 323 317 314 302 284 265 255 248 244 239 239 238 235 234 223 219 220 225 219 216 220 230 242 254 262 265 266 264 262 260 261 261 261 262 263 266 270 272 274 277 279 279 275 274 273 272 268 266 265 263 261 262 264 265 260 257 255 254 249
332 335 339 343 345 343 335 322 316 310 303 296 294 279 264 255 251 250 252 255 254 239 228 222 221 217 216 222 228 230 232 235 241 249 257 263 265 264 263 261 263 264 264 265 266 269 271 273 274 275 275 273 272 271 270 271 268 265 263 262 262 262 263 266 264 263 262 261 253
327 319 309 302 302 295 284 277 293 295 293 293 301 294 279 262 254 250 249 247 238 229 222 216 219 221 222 223 234 243 248 249 247 247 251 257 260 262 262 262 261 263 265 268 270 271 273 275 274 271 268 265 264 263 263 263 263 264 265 267 265 264 265 266 266 265 264 263 258
317 307 292 273 273 272 268 257 269 274 280 293 305 300 293 283 272 257 246 238 236 232 226 221 226 230 232 230 236 244 251 254 250 247 248 254 257 261 263 263 262 264 268 271 273 273 273 273 273 270 266 263 264 263 262 260 262 264 267 270 267 266 264 264 264 263 263 262 260
300 301 301 297 296 300 306 303 294 291 295 305 304 296 289 283 275 262 251 245 248 245 239 230 227 226 225 224 232 239 247 254 254 249 247 252 258 261 264 265 268 271 272 272 273 272 268 260 266 271 274 275 277 275 271 266 265 266 269 271 270 267 265 263 262 262 261 260 258
295 298 301 303 308 317 325 328 330 329 324 318 307 297 290 284 276 269 263 262 257 249 240 229 220 216 214 216 229 240 249 258 262 260 255 255 262 265 267 270 274 275 272 269 268 266 262 256 261 268 274 279 281 281 278 274 270 269 270 271 272 270 265 264 262 260 259 259 258
311 309 309 310 314 318 322 322 327 327 322 314 304 298 292 286 279 273 268 264 258 252 244 235 222 214 210 220 237 246 252 256 262 264 264 263 267 271 273 275 277 276 274 268 263 261 260 260 265 269 272 276 278 279 279 276 274 271 270 270 271 269 265 262 260 259 258 258 258
314 313 315 317 314 316 317 317 314 312 309 304 299 295 292 290 283 275 268 265 273 276 269 251 238 230 234 244 250 252 254 254 258 264 268 270 271 274 276 277 277 277 276 273 267 263 263 265 271 273 274 274 276 277 276 274 272 270 269 270 270 270 267 264 261 260 260 260 260
309 308 309 308 307 310 315 317 311 306 302 299 296 295 293 291 286 279 274 279 289 282 271 258 249 246 251 256 257 258 258 258 261 267 273 277 277 277 277 276 274 274 274 274 272 271 271 273 276 277 277 276 275 276 275 272 269 267 267 268 269 270 269 267 264 263 263 264 265
306 303 301 298 301 306 312 312 307 304 302 300 297 296 294 291 286 284 283 286 276 269 265 261 246 245 254 260 263 266 268 269 271 275 279 283 283 282 279 277 275 274 274 274 274 275 277 278 279 280 280 279 278 277 275 272 270 268 268 269 269 269 269 268 266 265 265 266 268
304 302 301 300 303 307 310 308 305 304 303 302 299 297 295 293 290 288 283 270 263 265 270 272 257 253 257 265 269 273 277 280 283 286 288 288 287 286 284 282 279 278 278 278 278 279 280 280 279 279 280 280 279 277 275 273 272 271 271 271 269 268 267 268 267 268 268 268 268
305 303 302 302 305 309 309 308 307 307 306 304 301 298 298 297 297 294 278 259 262 270 279 289 281 270 265 268 273 277 282 288 294 297 296 292 290 288 287 286 285 284 284 284 283 281 280 280 279 278 278 278 278 277 275 273 271 270 269 269 268 268 269 270 272 273 273 272 271
309 306 304 305 307 309 309 310 309 309 308 306 303 302 303 303 303 301 288 270 272 277 287 296 291 285 278 277 281 287 293 299 301 301 298 295 293 291 290 289 289 288 287 287 285 283 279 277 276 275 275 276 276 276 275 273 270 268 267 267 268 269 272 274 276 276 275 274 273
312 309 308 309 309 309 309 310 311 311 311 308 307 309 310 309 309 307 299 285 283 286 292 293 294 296 298 300 302 305 307 307 304 301 298 297 295 293 292 291 290 288 287 286 285 283 280 276 274 273 272 273 274 274 273 271 269 268 267 267 270 272 275 278 278 278 276 274 272
313 311 309 309 308 307 308 309 311 313 313 312 314 314 314 311 310 306 298 290 292 299 304 303 303 308 314 316 316 316 313 309 305 301 298 296 294 293 292 290 288 286 285 283 283 282 280 278 275 273 271 270 271 271 272 271 271 270 270 271 273 275 276 278 278 277 276 273 270
313 311 309 308 307 306 306 308 312 315 317 317 318 317 314 310 306 302 299 300 305 313 316 314 313 316 318 317 315 313 311 308 304 299 296 293 291 290 288 286 284 283 282 281 280 279 278 278 276 274 272 269 270 271 272 274 275 276 275 275 275 275 274 274 273 272 270 268 266
312 311 310 307 306 306 309 313 317 320 321 321 320 317 312 304 301 304 310 314 317 319 318 317 316 316 315 313 311 310 308 305 301 297 294 290 289 288 286 284 284 283 281 280 278 277 277 276 275 273 272 271 271 273 274 276 276 277 276 275 275 273 273 271 269 267 265 263 262
313 312 310 308 309 312 315 319 323 324 324 323 320 315 309 303 304 312 318 316 314 313 314 316 316 315 314 312 311 310 307 302 299 297 294 291 290 288 286 285 285 284 283 281 279 278 277 276 275 273 271 271 272 273 274 275 275 274 273 273 272 271 270 268 266 264 263 261 260
316 315 314 314 316 318 319 321 324 325 323 320 315 310 307 307 310 312 311 307 306 309 313 316 315 314 313 312 310 307 304 301 298 296 294 293 291 289 288 287 288 288 287 285 282 280 277 276 274 272 271 270 270 270 271 271 271 271 270 270 270 268 267 265 264 263 262 261 260
320 320 321 321 319 320 322 323 326 325 323 319 314 311 311 311 310 306 303 301 307 313 316 316 314 312 310 307 305 303 302 301 300 297 295 295 294 293 292 292 292 291 290 288 284 281 278 276 273 271 270 269 268 268 268 269 270 271 271 270 268 267 265 264 263 262 262 261 260
323 324 323 321 320 324 329 331 333 332 330 326 321 317 314 312 308 306 306 309 314 317 317 315 313 310 306 303 301 301 302 304 303 302 300 299 298 297 297 296 294 291 288 286 283 280 278 278 276 275 273 272 271 270 269 269 270 271 271 271 269 267 265 264 263 263 262 261 260
326 324 322 323 327 331 335 338 339 337 333 328 322 318 315 312 311 311 313 316 317 317 316 314 312 309 306 303 302 302 303 304 305 305 304 303 301 298 297 296 292 288 285 285 287 289 289 287 286 284 282 280 278 275 273 271 271 271 272 272 271 270 269 267 265 264 262 261 259
325 324 326 330 333 336 339 341 338 333 328 322 318 317 316 315 315 316 318 319 318 317 315 313 311 309 308 307 306 305 304 303 304 304 304 304 301 299 297 295 292 290 289 291 295 297 298 298 296 294 290 285 281 277 274 272 271 270 271 271 271 271 271 270 269 267 265 263 261
326 329 331 332 334 337 338 336 330 326 323 322 322 321 320 317 318 318 318 318 316 314 313 312 310 311 312 311 310 308 307 305 303 302 301 301 300 299 297 295 295 295 296 298 301 302 302 301 299 296 293 287 282 279 277 275 274 272 270 269 269 269 270 271 271 270 268 266 267
330 331 330 328 333 334 332 328 327 327 327 326 324 322 318 317 318 318 317 315 313 312 311 312 309 311 312 310 309 307 305 303 302 299 297 295 297 297 297 297 298 298 299 301 303 303 303 302 300 299 296 291 287 284 282 281 281 278 275 272 272 271 271 270 270 270 270 269 271
329 327 327 330 333 332 330 330 332 331 329 326 322 319 317 317 317 316 315 313 312 312 312 311 309 309 310 309 305 302 300 299 298 296 295 295 295 297 298 299 299 299 300 302 304 304 304 303 302 300 299 296 292 288 286 285 284 282 281 280 278 276 274 274 275 276 276 272 268
323 324 327 332 333 333 333 335 333 329 325 321 319 318 318 318 317 315 313 312 312 312 310 309 309 309 308 305 301 299 297 296 295 296 298 299 299 299 299 299 298 299 301 303 304 305 305 304 303 301 301 300 297 293 289 287 286 285 284 285 281 280 283 285 287 286 282 271 265
321 325 329 333 333 334 334 332 327 323 320 319 319 319 319 318 316 314 313 311 308 305 303 303 305 305 302 298 297 297 296 295 297 299 301 302 302 301 301 301 300 300 301 303 304 304 304 304 304 303 302 302 300 297 292 288 287 286 286 284 283 288 292 293 289 284 278 272 273
322 326 330 333 334 332 329 325 322 320 320 320 320 319 318 317 314 310 308 305 301 300 300 301 301 298 296 293 293 293 294 296 299 301 302 301 302 302 302 301 300 299 300 302 304 304 305 304 304 303 302 302 302 301 298 292 290 291 290 286 287 290 293 293 289 284 279 277 282
325 328 331 333 331 327 324 321 320 320 320 320 319 318 316 312 308 305 301 299 299 300 302 303 302 301 299 299 297 296 297 299 301 302 303 303 303 303 302 301 299 299 300 302 304 305 305 305 304 303 303 304 305 304 301 296 293 292 291 288 288 289 289 288 283 279 277 278 281
327 329 329 329 326 323 321 320 320 320 320 319 318 315 313 310 308 306 304 302 300 300 301 302 303 303 302 302 301 301 301 301 302 303 304 304 304 302 302 301 299 299 301 304 305 305 305 305 305 305 305 308 308 307 304 299 296 293 292 291 289 286 282 278 274 272 273 275 276
327 326 326 324 322 321 320 320 320 320 320 319 317 315 313 312 311 309 308 305 303 301 300 301 301 299 297 296 298 299 301 304 305 305 305 305 304 303 302 302 299 300 303 305 305 306 306 306 307 308 309 311 311 309 305 301 299 296 294 293 289 284 279 275 274 272 271 272 274
324 324 323 321 321 321 321 321 321 321 321 319 317 316 314 312 310 308 306 306 306 306 305 305 302 299 297 296 297 300 303 305 306 306 305 305 305 304 303 302 298 300 303 305 306 307 308 309 309 310 310 312 312 310 305 301 298 295 293 292 289 285 282 282 283 280 276 274 275
321 321 320 320 320 321 321 321 321 321 321 319 317 316 315 314 310 306 305 307 310 311 310 309 308 307 306 305 305 306 306 305 305 305 306 306 307 305 304 301 298 300 303 306 308 310 311 312 311 311 311 313 312 308 301 296 294 293 292 292 291 289 289 295 296 292 287 281 278
318 318 318 319 320 320 321 321 321 321 319 317 316 315 315 313 310 308 308 314 316 316 315 313 313 312 311 310 309 307 306 304 305 305 305 306 306 305 302 300 298 299 303 307 310 312 313 313 311 311 311 313 309 303 296 292 292 294 296 298 298 297 299 304 303 298 291 283 279
316 317 317 318 319 319 319 320 320 319 317 315 314 313 313 311 310 310 314 321 320 318 317 315 315 313 311 311 308 306 305 303 303 303 304 304 304 302 300 299 299 301 305 309 311 313 313 312 310 310 311 312 309 304 298 297 299 302 305 308 306 306 306 306 302 294 285 279 280
314 315 316 317 317 317 317 318 317 315 314 313 313 313 313 312 311 315 319 324 321 318 315 314 313 312 311 312 310 308 306 304 302 302 302 301 300 301 301 302 303 305 308 310 311 311 311 310 309 311 313 315 315 311 307 305 306 308 310 311 310 307 303 298 289 282 277 275 282
313 314 315 315 315 315 316 316 314 312 311 312 312 312 312 313 315 318 321 322 319 316 314 312 311 310 310 312 311 308 306 304 302 301 300 300 299 302 304 306 306 307 307 308 309 309 309 309 310 312 315 317 319 317 311 308 307 308 308 308 306 303 297 288 278 274 274 276 282
312 314 315 315 314 314 314 313 311 310 310 311 310 310 312 316 318 319 321 321 318 316 315 313 311 310 310 312 310 307 305 303 302 301 300 301 301 303 305 306 306 304 304 304 305 307 308 310 312 315 317 318 320 318 313 308 306 306 305 304 302 300 295 287 281 279 280 281 282